When you browse on this site, cookies collect data to enhance your experience and personalize the content and advertising you see.
Visit our Privacy Policy to learn more. By continuing to use the site, you agree to this use of cookies and data.
  • In United Kingdom
  • List of Countries
  • For 7 days
  • Water Temperature
  • Weather Map
  • Weather Widgets
  • user-avatar
    Login

    Hourly Weather Garmisch-Partenkirchen

    Today, 9 December, Monday

    Time Temperature Precipitation Wind Pressure Humidity
    00:00 +2°C° 0.1 mm 2 mps 669 mmHg 66%
    01:00 +2°C° 0 mm 2 mps 669 mmHg 63%
    02:00 +2°C° 0.1 mm 2 mps 669 mmHg 67%
    03:00 +2°C° 0.1 mm 2 mps 668 mmHg 70%
    04:00 +3°C° 0.1 mm 1 mps 668 mmHg 73%
    05:00 +3°C° 0.6 mm 1 mps 668 mmHg 79%
    06:00 +3°C° 0.6 mm 1 mps 668 mmHg 85%
    07:00 +3°C° 0.6 mm 1 mps 668 mmHg 91%
    08:00 +3°C° 0.4 mm 1 mps 668 mmHg 91%
    09:00 +3°C° 0.4 mm 1 mps 668 mmHg 91%
    10:00 +3°C° 0.4 mm 1 mps 667 mmHg 92%
    11:00 +4°C° 0.1 mm 1 mps 667 mmHg 87%
    12:00 +5°C° 0.1 mm 1 mps 667 mmHg 83%
    13:00 +5°C° 0.1 mm 1 mps 666 mmHg 78%
    14:00 +5°C° 0.1 mm 1 mps 666 mmHg 82%
    15:00 +4°C° 0.1 mm 1 mps 666 mmHg 86%
    16:00 +3°C° 0.1 mm 1 mps 666 mmHg 90%
    17:00 +2°C° 0.2 mm 1 mps 666 mmHg 91%
    18:00 +2°C° 0.2 mm 1 mps 667 mmHg 91%
    19:00 +2°C° 0.2 mm 1 mps 667 mmHg 91%
    20:00 +2°C° 0.8 mm 1 mps 668 mmHg 93%
    21:00 +2°C° 0.8 mm 1 mps 669 mmHg 95%
    22:00 +1°C° 0.8 mm 2 mps 669 mmHg 97%
    23:00 -1°C° 1.2 mm 2 mps 670 mmHg 97%

    Tomorrow, 10 December, Tuesday

    Time Temperature Precipitation Wind Pressure Humidity
    00:00 -1°C° 1.2 mm 2 mps 671 mmHg 97%
    01:00 -1°C° 1.2 mm 2 mps 671 mmHg 97%
    02:00 -1°C° 1.2 mm 2 mps 672 mmHg 97%
    03:00 -1°C° 1.2 mm 2 mps 673 mmHg 97%
    04:00 -1°C° 1.2 mm 2 mps 673 mmHg 97%
    05:00 -2°C° 1.8 mm 2 mps 675 mmHg 97%
    06:00 -2°C° 1.8 mm 2 mps 676 mmHg 97%
    07:00 -2°C° 1.8 mm 2 mps 677 mmHg 97%
    08:00 -3°C° 0.7 mm 2 mps 677 mmHg 95%
    09:00 -3°C° 0.7 mm 2 mps 678 mmHg 94%
    10:00 -3°C° 0.7 mm 2 mps 678 mmHg 93%
    11:00 -1°C° 0.1 mm 1 mps 679 mmHg 89%
    12:00 0°C° 0.1 mm 1 mps 679 mmHg 85%
    13:00 0°C° 0.1 mm 1 mps 679 mmHg 82%
    14:00 -1°C° 0 mm 1 mps 678 mmHg 85%
    15:00 -3°C° 0 mm 0 mps 678 mmHg 88%
    16:00 -4°C° 0 mm 0 mps 677 mmHg 91%
    17:00 -4°C° 0 mm 1 mps 677 mmHg 89%
    18:00 -6°C° 0 mm 1 mps 677 mmHg 86%
    19:00 -8°C° 0 mm 2 mps 677 mmHg 84%
    20:00 -8°C° 0 mm 2 mps 677 mmHg 80%
    21:00 -8°C° 0 mm 2 mps 677 mmHg 76%
    22:00 -8°C° 0 mm 2 mps 676 mmHg 72%
    23:00 -8°C° 0 mm 2 mps 676 mmHg 68%

    Day after tomorrow, 11 December, Wednesday

    Time Temperature Precipitation Wind Pressure Humidity
    00:00 -7°C° 0 mm 2 mps 675 mmHg 63%
    01:00 -7°C° 0 mm 2 mps 675 mmHg 59%
    02:00 -6°C° 0 mm 2 mps 674 mmHg 57%
    03:00 -6°C° 0 mm 2 mps 674 mmHg 55%
    04:00 -5°C° 0 mm 2 mps 673 mmHg 53%
    05:00 -5°C° 0 mm 2 mps 673 mmHg 53%
    06:00 -5°C° 0 mm 2 mps 672 mmHg 52%
    07:00 -4°C° 0 mm 2 mps 672 mmHg 52%
    08:00 -3°C° 0 mm 2 mps 672 mmHg 54%
    09:00 -1°C° 0 mm 2 mps 672 mmHg 56%
    10:00 +2°C° 0 mm 1 mps 672 mmHg 58%
    11:00 +3°C° 0 mm 1 mps 671 mmHg 63%
    12:00 +4°C° 0 mm 1 mps 671 mmHg 67%
    13:00 +5°C° 0 mm 0 mps 670 mmHg 71%
    14:00 +3°C° 0 mm 0 mps 669 mmHg 68%
    15:00 +3°C° 0 mm 1 mps 669 mmHg 64%
    16:00 +2°C° 0 mm 1 mps 668 mmHg 61%
    17:00 +2°C° 0 mm 1 mps 668 mmHg 62%
    18:00 +2°C° 0 mm 1 mps 668 mmHg 63%
    19:00 +1°C° 0 mm 1 mps 668 mmHg 64%
    20:00 +1°C° 0 mm 1 mps 669 mmHg 73%
    21:00 +1°C° 0 mm 1 mps 669 mmHg 81%
    22:00 0°C° 0 mm 1 mps 669 mmHg 90%
    23:00 0°C° 0.3 mm 1 mps 668 mmHg 92%

    12 December, Thursday

    Time Temperature Precipitation Wind Pressure Humidity
    00:00 0°C° 0.3 mm 1 mps 668 mmHg 94%
    01:00 0°C° 0.3 mm 1 mps 668 mmHg 97%
    02:00 0°C° 0.6 mm 1 mps 668 mmHg 96%
    03:00 0°C° 0.6 mm 1 mps 667 mmHg 96%
    04:00 0°C° 0.6 mm 1 mps 667 mmHg 95%
    05:00 -1°C° 0.6 mm 1 mps 667 mmHg 94%
    06:00 -1°C° 0.6 mm 1 mps 668 mmHg 94%
    07:00 -3°C° 0.6 mm 2 mps 668 mmHg 93%
    08:00 -3°C° 0.1 mm 2 mps 668 mmHg 90%
    09:00 -3°C° 0.1 mm 2 mps 669 mmHg 87%
    10:00 -2°C° 0.1 mm 2 mps 669 mmHg 84%
    11:00 -2°C° 0.1 mm 2 mps 669 mmHg 81%
    12:00 -2°C° 0.1 mm 2 mps 669 mmHg 78%
    13:00 -1°C° 0.1 mm 2 mps 669 mmHg 75%
    14:00 0°C° 0.1 mm 1 mps 668 mmHg 78%
    15:00 -1°C° 0.1 mm 1 mps 668 mmHg 82%
    16:00 -2°C° 0.1 mm 1 mps 667 mmHg 85%
    17:00 -3°C° 0 mm 1 mps 667 mmHg 83%
    18:00 -6°C° 0 mm 2 mps 667 mmHg 81%
    19:00 -7°C° 0 mm 2 mps 666 mmHg 80%
    20:00 -8°C° 0 mm 3 mps 665 mmHg 77%
    21:00 -8°C° 0 mm 3 mps 665 mmHg 75%
    22:00 -9°C° 0 mm 4 mps 664 mmHg 73%
    23:00 -8°C° 0 mm 4 mps 663 mmHg 73%

    13 December, Friday

    Time Temperature Precipitation Wind Pressure Humidity
    00:00 -8°C° 0 mm 4 mps 662 mmHg 74%
    01:00 -7°C° 0 mm 4 mps 661 mmHg 74%
    02:00 -7°C° 0.1 mm 4 mps 660 mmHg 75%
    03:00 -5°C° 0.1 mm 4 mps 659 mmHg 76%
    04:00 -5°C° 0.1 mm 4 mps 658 mmHg 77%
    05:00 -5°C° 0.1 mm 4 mps 657 mmHg 77%
    06:00 -5°C° 0.1 mm 4 mps 657 mmHg 77%
    07:00 -5°C° 0.1 mm 4 mps 656 mmHg 77%
    08:00 -5°C° 0.2 mm 4 mps 656 mmHg 77%
    09:00 -4°C° 0.2 mm 4 mps 655 mmHg 77%
    10:00 -4°C° 0.2 mm 4 mps 654 mmHg 77%
    11:00 -4°C° 1.4 mm 3 mps 655 mmHg 82%
    12:00 -2°C° 1.4 mm 3 mps 655 mmHg 87%
    13:00 -2°C° 1.4 mm 2 mps 656 mmHg 93%
    14:00 -2°C° 0.2 mm 2 mps 656 mmHg 91%
    15:00 -2°C° 0.2 mm 3 mps 656 mmHg 89%
    16:00 -2°C° 0.2 mm 3 mps 656 mmHg 87%
    17:00 -4°C° 0 mm 3 mps 656 mmHg 86%
    18:00 -5°C° 0 mm 3 mps 656 mmHg 84%
    19:00 -6°C° 0 mm 3 mps 656 mmHg 83%
    20:00 -6°C° 0 mm 3 mps 657 mmHg 83%
    21:00 -5°C° 0 mm 3 mps 657 mmHg 83%
    22:00 -5°C° 0 mm 3 mps 658 mmHg 83%
    23:00 -6°C° 0 mm 3 mps 658 mmHg 83%

    14 December, Saturday

    Time Temperature Precipitation Wind Pressure Humidity
    00:00 -6°C° 0 mm 3 mps 658 mmHg 83%
    01:00 -6°C° 0 mm 3 mps 659 mmHg 83%
    02:00 -6°C° 0 mm 3 mps 659 mmHg 83%
    03:00 -6°C° 0 mm 3 mps 659 mmHg 82%
    04:00 -7°C° 0 mm 3 mps 659 mmHg 82%
    05:00 -6°C° 0 mm 3 mps 660 mmHg 82%
    06:00 -6°C° 0 mm 3 mps 660 mmHg 82%
    07:00 -5°C° 0 mm 3 mps 660 mmHg 82%
    08:00 -4°C° 0.4 mm 3 mps 661 mmHg 85%
    09:00 -2°C° 0.4 mm 3 mps 661 mmHg 89%
    10:00 -2°C° 0.4 mm 3 mps 661 mmHg 92%
    11:00 -1°C° 2.1 mm 2 mps 661 mmHg 94%
    12:00 -1°C° 2.1 mm 2 mps 661 mmHg 96%
    13:00 +1°C° 2.1 mm 2 mps 661 mmHg 97%
    14:00 +1°C° 3 mm 2 mps 662 mmHg 98%
    15:00 +1°C° 3 mm 2 mps 663 mmHg 98%
    16:00 +1°C° 3 mm 2 mps 664 mmHg 98%
    17:00 +1°C° 1.3 mm 2 mps 664 mmHg 97%
    18:00 +1°C° 1.3 mm 2 mps 665 mmHg 96%
    19:00 0°C° 1.3 mm 3 mps 666 mmHg 95%
    20:00 0°C° 0 mm 3 mps 666 mmHg 92%
    21:00 -1°C° 0 mm 3 mps 667 mmHg 90%
    22:00 -1°C° 0 mm 3 mps 668 mmHg 87%
    23:00 -1°C° 0 mm 3 mps 668 mmHg 86%
    Show more